GW6588 Weather Reports


Display with metric or nautical units.
time (UTC)temp
F
wind
direction
speed
MPH
gust
MPH
rain 1hr
in
rain 24hr
in
rain mn
in
humidity
%
barometer
mb
20260505125010 46 284 0.0 1.0 0.00 0.00 0.00 73 1012.5
20260505124529 46 0 0.0 1.0 0.00 0.00 0.00 73 1012.5
20260505124015 46 284 0.0 1.0 0.00 0.00 0.00 73 1012.5
20260505123511 46 0 0.0 1.0 0.00 0.00 0.00 73 1012.4
20260505123026 46 254 0.0 1.0 0.00 0.00 0.00 74 1012.4
20260505122508 46 216 0.0 1.0 0.00 0.00 0.00 74 1012.4
20260505122014 46 0 0.0 1.0 0.00 0.00 0.00 73 1012.4
20260505121531 46 0 0.0 1.0 0.00 0.00 0.00 72 1012.4
20260505121013 47 0 0.0 1.0 0.00 0.00 0.00 72 1012.4
20260505120514 47 0 0.0 1.0 0.00 0.00 0.00 72 1012.3
20260505120030 47 267 0.0 1.0 0.00 0.00 0.00 72 1012.2
20260505115512 46 0 0.0 1.0 0.00 0.00 0.00 73 1012.2
20260505115012 46 273 0.0 1.0 0.00 0.00 0.00 74 1012.2
20260505114537 47 273 0.0 1.0 0.00 0.00 0.00 73 1012.1
20260505114015 47 228 0.0 1.0 0.00 0.00 0.00 72 1012.1
20260505113510 47 0 0.0 1.0 0.00 0.00 0.00 73 1012.1
20260505113029 47 228 0.0 2.0 0.00 0.00 0.00 72 1012.0
20260505112509 47 256 0.0 2.0 0.00 0.00 0.00 72 1011.9
20260505112012 46 0 0.0 2.0 0.00 0.00 0.00 72 1011.9
20260505111533 46 226 0.0 1.0 0.00 0.00 0.00 75 1011.9
20260505111011 46 0 0.0 1.0 0.00 0.00 0.00 75 1011.7
20260505110511 46 0 0.0 1.0 0.00 0.00 0.00 75 1011.5
20260505101010 48 262 0.0 1.0 0.00 0.00 0.00 69 1011.2
20260505100512 48 267 0.0 1.0 0.00 0.00 0.00 70 1011.2
20260505095512 49 271 0.0 1.0 0.00 0.00 0.00 68 1011.2
20260505095011 49 271 0.0 2.0 0.00 0.00 0.00 67 1011.2
20260505094012 49 271 1.0 1.0 0.00 0.00 0.00 66 1011.2
20260505093510 49 276 0.0 1.0 0.00 0.00 0.00 66 1011.2
20260505092512 49 280 0.0 1.0 0.00 0.00 0.00 67 1011.3
20260505092011 49 0 0.0 2.0 0.00 0.00 0.00 68 1011.3
20260505091527 49 273 0.0 2.0 0.00 0.00 0.00 66 1011.4
20260505091011 49 274 0.0 1.0 0.00 0.00 0.00 67 1011.3
20260505090510 49 268 0.0 1.0 0.00 0.00 0.00 66 1011.4
20260505090048 49 274 0.0 1.0 0.00 0.00 0.00 66 1011.4
20260505085514 49 271 0.0 1.0 0.00 0.00 0.00 66 1011.4
20260505085010 49 271 0.0 1.0 0.00 0.00 0.00 66 1011.5
20260505084534 49 0 0.0 1.0 0.00 0.00 0.00 67 1011.5
20260505084010 49 271 0.0 1.0 0.00 0.00 0.00 64 1011.5
20260505083511 50 271 1.0 1.0 0.00 0.00 0.00 63 1011.4
20260505083038 50 271 0.0 1.0 0.00 0.00 0.00 63 1011.5
20260505082511 51 0 0.0 1.0 0.00 0.00 0.00 63 1011.5
20260505082010 51 271 0.0 2.0 0.00 0.00 0.00 61 1011.6
20260505081548 51 251 0.0 2.0 0.00 0.00 0.00 61 1011.6
20260505081010 51 259 0.0 1.0 0.00 0.00 0.00 62 1011.6
20260505080508 51 269 0.0 1.0 0.00 0.00 0.00 62 1011.7
20260505080038 51 264 1.0 2.0 0.00 0.00 0.00 61 1011.6
20260505075510 51 257 1.0 2.0 0.00 0.00 0.00 61 1011.6
20260505075012 51 262 1.0 3.0 0.00 0.00 0.00 61 1011.6
20260505074527 51 269 1.0 3.0 0.00 0.00 0.00 61 1011.5
20260505074011 52 281 1.0 3.0 0.00 0.00 0.00 61 1011.6
20260505073511 52 250 1.0 3.0 0.00 0.00 0.00 59 1011.6
20260505073030 51 263 1.0 2.0 0.00 0.00 0.00 60 1011.6
20260505072512 52 267 1.0 2.0 0.00 0.00 0.00 59 1011.6
20260505072011 52 276 1.0 2.0 0.00 0.00 0.00 58 1011.6
20260505071530 52 278 1.0 2.0 0.00 0.00 0.00 58 1011.6
20260505071012 52 248 1.0 2.0 0.00 0.00 0.00 57 1011.4
20260505070509 52 281 1.0 3.0 0.00 0.00 0.00 58 1011.4
20260505070028 52 269 1.0 3.0 0.00 0.00 0.00 57 1011.5
20260505065511 52 273 1.0 3.0 0.00 0.00 0.00 56 1011.3
20260505065009 53 262 1.0 3.0 0.00 0.00 0.00 56 1011.4
20260505064527 53 273 1.0 3.0 0.00 0.00 0.00 56 1011.3
20260505064010 53 262 1.0 3.0 0.00 0.00 0.00 56 1011.3
20260505063513 54 261 1.0 3.0 0.00 0.00 0.00 55 1011.4
20260505063035 54 269 1.0 3.0 0.00 0.00 0.00 53 1011.3
20260505062512 54 182 1.0 3.0 0.00 0.00 0.00 52 1011.3
20260505062009 55 261 1.0 3.0 0.00 0.00 0.00 51 1011.3
20260505061532 55 253 0.0 2.0 0.00 0.00 0.00 53 1011.4
20260505061010 55 253 0.0 3.0 0.00 0.00 0.00 50 1011.4
20260505060512 55 222 0.0 3.0 0.00 0.00 0.00 51 1011.4
20260505060028 55 243 0.0 4.0 0.00 0.00 0.00 51 1011.4
20260505055512 55 275 1.0 4.0 0.00 0.00 0.00 52 1011.4
20260505055012 54 226 1.0 3.0 0.00 0.00 0.00 52 1011.3
20260505054530 54 266 1.0 4.0 0.00 0.00 0.00 52 1011.3
20260505054014 55 290 1.0 4.0 0.00 0.00 0.00 51 1011.2
20260505053511 55 263 1.0 3.0 0.00 0.00 0.00 51 1011.1
20260505053030 55 257 0.0 3.0 0.00 0.00 0.00 50 1011.2
20260505052512 56 246 1.0 4.0 0.00 0.00 0.00 48 1011.2
20260505052013 56 267 1.0 4.0 0.00 0.00 0.00 46 1011.2
20260505051530 56 237 2.0 4.0 0.00 0.00 0.00 47 1011.3
20260505051009 56 278 1.0 4.0 0.00 0.00 0.00 48 1011.2
20260505050512 55 275 1.0 4.0 0.00 0.00 0.00 49 1011.2
20260505041526 56 301 1.0 3.0 0.00 0.00 0.00 50 1010.9
20260505041013 56 279 1.0 5.0 0.00 0.00 0.00 50 1010.9
20260505040512 56 292 1.0 5.0 0.00 0.00 0.00 50 1010.8
20260505040029 56 257 1.0 5.0 0.00 0.00 0.00 49 1010.7
20260505035511 56 255 1.0 5.0 0.00 0.00 0.00 51 1010.7
20260505035009 57 255 1.0 3.0 0.00 0.00 0.00 51 1010.7
20260505034529 57 271 1.0 7.0 0.00 0.00 0.00 48 1010.6
20260505034012 57 225 1.0 7.0 0.00 0.00 0.00 48 1010.4
20260505033513 57 236 1.0 3.0 0.00 0.00 0.00 50 1010.4
20260505033035 57 264 1.0 3.0 0.00 0.00 0.00 47 1010.2
20260505032511 57 288 1.0 3.0 0.00 0.00 0.00 46 1010.2
20260505032008 57 271 1.0 2.0 0.00 0.00 0.00 48 1010.1
20260505031526 57 270 1.0 3.0 0.00 0.00 0.00 46 1010.1
20260505031012 58 257 1.0 3.0 0.00 0.00 0.00 48 1009.9
20260505030513 58 252 1.0 3.0 0.00 0.00 0.00 46 1009.9
20260505030028 58 255 1.0 4.0 0.00 0.00 0.00 46 1009.8
20260505025515 58 277 1.0 4.0 0.00 0.00 0.00 45 1009.9
20260505025011 58 252 1.0 3.0 0.00 0.00 0.00 45 1009.9
20260505024550 59 266 1.0 4.0 0.00 0.00 0.00 43 1009.8
20260505024009 59 277 2.0 4.0 0.00 0.00 0.00 43 1009.9
20260505023513 60 274 1.0 5.0 0.00 0.00 0.00 42 1009.8
20260505023036 60 260 1.0 5.0 0.00 0.00 0.00 39 1009.7
20260505022511 60 247 1.0 5.0 0.00 0.00 0.00 42 1009.7
20260505022011 61 207 2.0 4.0 0.00 0.00 0.00 38 1009.7
20260505021543 61 281 1.0 2.0 0.00 0.00 0.00 42 1009.7
20260505021012 61 273 0.0 3.0 0.00 0.00 0.00 41 1009.7
20260505020509 61 271 1.0 3.0 0.00 0.00 0.00 41 1009.7
20260505020027 61 0 0.0 3.0 0.00 0.00 0.00 40 1009.6
20260505015514 61 270 1.0 3.0 0.00 0.00 0.00 40 1009.6
20260505015010 62 283 0.0 3.0 0.00 0.00 0.00 37 1009.6
20260505014530 62 275 1.0 6.0 0.00 0.00 0.00 36 1009.4
20260505014013 62 291 1.0 6.0 0.00 0.00 0.00 38 1009.5
20260505013510 62 225 1.0 4.0 0.00 0.00 0.00 39 1009.5
20260505013029 63 275 1.0 4.0 0.00 0.00 0.00 36 1009.5
20260505012514 63 205 1.0 5.0 0.00 0.00 0.00 38 1009.5
20260505012015 63 272 1.0 5.0 0.00 0.00 0.00 36 1009.5
20260505011535 64 0 1.0 5.0 0.00 0.00 0.00 35 1009.5
20260505011011 64 285 1.0 8.0 0.00 0.00 0.00 37 1009.7
20260505010511 64 229 1.0 8.0 0.00 0.00 0.00 35 1009.6
20260505010026 64 232 1.0 7.0 0.00 0.00 0.00 33 1009.6
20260505005512 64 122 1.0 3.0 0.00 0.00 0.00 35 1009.6
20260505005012 64 0 0.0 2.0 0.00 0.00 0.00 35 1009.6
20260505004537 64 221 1.0 3.0 0.00 0.00 0.00 33 1009.6
20260505004009 65 264 0.0 3.0 0.00 0.00 0.00 34 1009.7
20260505003509 65 175 1.0 5.0 0.00 0.00 0.00 32 1009.7
20260505003028 65 160 0.0 6.0 0.00 0.00 0.00 32 1009.7
20260505002509 65 278 1.0 6.0 0.00 0.00 0.00 32 1009.6
20260505002013 65 240 1.0 3.0 0.00 0.00 0.00 33 1009.8
20260505001532 66 0 0.0 3.0 0.00 0.00 0.00 32 1009.7
20260505001008 66 229 1.0 6.0 0.00 0.00 0.00 30 1009.6
20260505000511 66 243 1.0 9.0 0.00 0.00 0.00 31 1009.6
20260505000029 67 221 2.0 9.0 0.00 0.00 0.00 30 1009.6
20260504235511 67 0 2.0 9.0 0.00 0.00 0.00 29 1009.7
20260504235015 67 350 1.0 8.0 0.00 0.00 0.00 28 1009.6
20260504234528 67 218 1.0 5.0 0.00 0.00 0.00 29 1009.6
20260504234012 67 231 1.0 4.0 0.00 0.00 0.00 30 1009.7
20260504233512 68 154 1.0 6.0 0.00 0.00 0.00 30 1009.7
20260504233028 68 195 2.0 6.0 0.00 0.00 0.00 29 1009.7
20260504232511 68 154 2.0 7.0 0.00 0.00 0.00 28 1009.7
20260504232011 68 304 1.0 7.0 0.00 0.00 0.00 27 1009.7
20260504231528 69 274 1.0 7.0 0.00 0.00 0.00 28 1009.8
20260504231015 70 219 2.0 8.0 0.00 0.00 0.00 27 1009.7
20260504230512 70 136 1.0 9.0 0.00 0.00 0.00 25 1009.7
20260504230028 70 50 1.0 9.0 0.00 0.00 0.00 26 1009.9
20260504225512 71 53 1.0 7.0 0.00 0.00 0.00 26 1009.9
20260504225011 71 252 2.0 7.0 0.00 0.00 0.00 25 1010.0
20260504224527 71 269 1.0 9.0 0.00 0.00 0.00 26 1009.9
20260504224011 71 187 2.0 9.0 0.00 0.00 0.00 27 1010.0
20260504223511 71 311 2.0 6.0 0.00 0.00 0.00 26 1009.9
20260504223034 71 248 1.0 6.0 0.00 0.00 0.00 25 1010.0
20260504222511 72 267 2.0 8.0 0.00 0.00 0.00 26 1010.1
20260504222014 72 12 2.0 8.0 0.00 0.00 0.00 26 1010.2
20260504221533 72 27 1.0 7.0 0.00 0.00 0.00 26 1010.2
20260504221011 72 113 2.0 7.0 0.00 0.00 0.00 25 1010.2
20260504220515 72 135 2.0 7.0 0.00 0.00 0.00 26 1010.2
20260504220026 72 289 3.0 7.0 0.00 0.00 0.00 26 1010.3
20260504215511 73 0 1.0 6.0 0.00 0.00 0.00 26 1010.2
20260504215010 73 202 1.0 7.0 0.00 0.00 0.00 24 1010.2
20260504214528 73 122 2.0 7.0 0.00 0.00 0.00 26 1010.3
20260504214010 73 155 1.0 5.0 0.00 0.00 0.00 23 1010.3
20260504213514 73 245 1.0 6.0 0.00 0.00 0.00 27 1010.4
20260504213027 73 210 2.0 7.0 0.00 0.00 0.00 24 1010.4
20260504212509 72 245 1.0 9.0 0.00 0.00 0.00 26 1010.4
20260504212013 72 49 1.0 9.0 0.00 0.00 0.00 25 1010.7
20260504211528 72 76 1.0 7.0 0.00 0.00 0.00 23 1010.9
20260504211011 73 64 1.0 7.0 0.00 0.00 0.00 23 1011.0
20260504210510 74 339 1.0 7.0 0.00 0.00 0.00 25 1011.0
20260504210027 73 32 1.0 7.0 0.00 0.00 0.00 26 1010.9
20260504205009 73 210 0.0 5.0 0.00 0.00 0.00 23 1010.9
20260504204536 73 342 1.0 6.0 0.00 0.00 0.00 26 1011.0
20260504204010 72 310 2.0 6.0 0.00 0.00 0.00 26 1011.0
20260504203514 72 207 2.0 10.0 0.00 0.00 0.00 24 1011.0
20260504203026 72 278 2.0 10.0 0.00 0.00 0.00 26 1011.2
20260504202509 73 84 1.0 4.0 0.00 0.00 0.00 25 1011.2
20260504202011 73 30 1.0 4.0 0.00 0.00 0.00 24 1011.2
20260504201527 73 55 0.0 4.0 0.00 0.00 0.00 23 1011.2
20260504201012 72 316 1.0 5.0 0.00 0.00 0.00 23 1011.3
20260504200510 72 115 1.0 5.0 0.00 0.00 0.00 22 1011.5
20260504200029 72 305 1.0 4.0 0.00 0.00 0.00 22 1011.4
20260504195512 73 94 1.0 8.0 0.00 0.00 0.00 20 1011.4
20260504195010 72 302 1.0 8.0 0.00 0.00 0.00 23 1011.4
20260504194536 71 44 2.0 8.0 0.00 0.00 0.00 23 1011.4
20260504194009 72 10 2.0 7.0 0.00 0.00 0.00 23 1011.4
20260504193509 72 94 1.0 4.0 0.00 0.00 0.00 21 1011.4
20260504193028 71 217 1.0 4.0 0.00 0.00 0.00 23 1011.4
20260504192511 71 108 1.0 5.0 0.00 0.00 0.00 24 1011.5
20260504192015 70 15 2.0 5.0 0.00 0.00 0.00 24 1011.6
20260504191527 70 86 1.0 4.0 0.00 0.00 0.00 23 1011.5
20260504191009 70 59 1.0 7.0 0.00 0.00 0.00 22 1011.6
20260504190511 69 88 2.0 7.0 0.00 0.00 0.00 24 1011.6
20260504190035 69 29 3.0 6.0 0.00 0.00 0.00 20 1011.7
20260504185509 70 307 1.0 2.0 0.00 0.00 0.00 22 1011.7
20260504185009 69 319 1.0 4.0 0.00 0.00 0.00 24 1011.7
20260504184534 68 246 2.0 6.0 0.00 0.00 0.00 22 1011.7
20260504184011 68 57 2.0 6.0 0.00 0.00 0.00 21 1011.9
20260504183032 68 44 3.0 8.0 0.00 0.00 0.00 26 1012.0
20260504182507 68 71 1.0 6.0 0.00 0.00 0.00 22 1011.9
20260504182011 69 70 1.0 9.0 0.00 0.00 0.00 26 1012.0
20260504181526 68 300 2.0 9.0 0.00 0.00 0.00 26 1012.1
20260504181013 68 70 2.0 8.0 0.00 0.00 0.00 24 1012.1
20260504180511 68 265 2.0 5.0 0.00 0.00 0.00 25 1012.1
20260504180028 67 67 2.0 8.0 0.00 0.00 0.00 23 1012.1
20260504175511 67 28 3.0 8.0 0.00 0.00 0.00 25 1012.1
20260504175010 68 65 1.0 6.0 0.00 0.00 0.00 26 1012.0
20260504174530 68 195 1.0 3.0 0.00 0.00 0.00 28 1012.2
20260504174013 67 129 1.0 4.0 0.00 0.00 0.00 25 1012.1
20260504173511 66 301 1.0 4.0 0.00 0.00 0.00 27 1012.2
20260504173029 66 40 1.0 4.0 0.00 0.00 0.00 26 1012.3
20260504172510 65 89 2.0 4.0 0.00 0.00 0.00 31 1012.4
20260504171526 66 75 2.0 4.0 0.00 0.00 0.00 28 1012.3
20260504171014 66 22 1.0 4.0 0.00 0.00 0.00 30 1012.3
20260504170508 66 69 1.0 3.0 0.00 0.00 0.00 31 1012.3
20260504151013 55 34 1.0 3.0 0.00 0.00 0.00 53 1012.9
20260504150515 55 53 2.0 2.0 0.00 0.00 0.00 54 1013.0
20260504141012 49 328 0.0 2.0 0.00 0.00 0.00 69 1012.7
20260504140512 49 0 0.0 2.0 0.00 0.00 0.00 71 1012.8
20260504130514 41 0 0.0 1.0 0.00 0.00 0.00 72 1012.4